This is the latest recevied weather packets stored in our database for station/object K5BOU. If no packets are shown the sender has not sent any weather packets the latest 10 day(s).
| Time | Temp. | Humidity | Pressure | Rain* | Wind** | Luminosity | Snow |
|---|---|---|---|---|---|---|---|
| 1788559845 | 33.89° C | 68% | 1010.4 hPa | 0 mm | - | 115 W/m² | - |
| 1788559544 | 34.44° C | 67% | 1010.3 hPa | 0 mm | - | 459 W/m² | - |
| 1788559240 | 33.89° C | 69% | 1010.3 hPa | 0 mm | - | 436 W/m² | - |
| 1788558934 | 33.89° C | 70% | 1010.3 hPa | 0 mm | - | 454 W/m² | - |
| 1788558630 | 34.44° C | 69% | 1010.4 hPa | 0 mm | - | 193 W/m² | - |
| 1788558325 | 34.44° C | 69% | 1010.5 hPa | 0 mm | - | 487 W/m² | - |
| 1788558021 | 34.44° C | 71% | 1010.6 hPa | 0 mm | - | 557 W/m² | - |
| 1788557718 | 33.89° C | 71% | 1010.6 hPa | 0 mm | - | 522 W/m² | - |
| 1788557416 | 33.89° C | 70% | 1010.6 hPa | 0 mm | - | 518 W/m² | - |
| 1788557115 | 33.89° C | 70% | 1010.7 hPa | 0 mm | - | 518 W/m² | - |
| 1788556810 | 33.89° C | 71% | 1010.7 hPa | 0 mm | - | 449 W/m² | - |
| 1788556504 | 33.89° C | 70% | 1010.7 hPa | 0 mm | - | 389 W/m² | - |
| 1788556200 | 33.89° C | 72% | 1010.9 hPa | 0 mm | - | 392 W/m² | - |
| 1788555899 | 33.89° C | 73% | 1010.7 hPa | 0 mm | - | 426 W/m² | - |
| 1788555595 | 33.89° C | 72% | 1010.7 hPa | 0 mm | - | 509 W/m² | - |
| 1788555290 | 33.33° C | 70% | 1010.8 hPa | 0 mm | - | 506 W/m² | - |
| 1788554987 | 33.89° C | 72% | 1011.1 hPa | 0 mm | - | 337 W/m² | - |
| 1788554683 | 34.44° C | 73% | 1011 hPa | 0 mm | - | 494 W/m² | - |
| 1788554379 | 33.89° C | 71% | 1011.2 hPa | 0 mm | - | 668 W/m² | - |
| 1788554075 | 33.89° C | 74% | 1011.2 hPa | 0 mm | - | 363 W/m² | - |
| 1788553771 | 33.33° C | 76% | 1011.3 hPa | 0 mm | - | 786 W/m² | - |
| 1788553466 | 33.33° C | 75% | 1011.3 hPa | 0 mm | - | 613 W/m² | - |
| 1788553162 | 33.89° C | 73% | 1011.5 hPa | 0 mm | - | 628 W/m² | - |
| 1788552857 | 33.33° C | 75% | 1011.6 hPa | 0 mm | - | 718 W/m² | - |
| 1788552553 | 33.33° C | 76% | 1011.6 hPa | 0 mm | - | 812 W/m² | - |
* Rain latest hour (hover to see other rain measurements)
** Current wind speed in m/s (hover to see current wind gust speed)